Regional Weather Roundup
Issued by NWS

Home | Current Version | Previous Version | Text Only | Print | Product List | Glossary Off
Versions: 1 2 3 4 5 6 7 8 9 10 11 12 13 14 15 16 17 18 19 20 21 22 23 24 25 26 27 28 29 30 31 32 33 34 35 36 37 38 39 40 41 42 43 44 45 46 47 48 49 50

994
ASUS43 KFSD 271010
RWRSD

WEATHER ROUNDUP FOR SOUTH DAKOTA
NATIONAL WEATHER SERVICE SIOUX FALLS SD
500 AM CDT WED JUL 27 2016

NOTE: "FAIR" INDICATES FEW OR NO CLOUDS BELOW 12,000 FEET WITH NO
SIGNIFICANT WEATHER AND/OR OBSTRUCTIONS TO VISIBILITY.


SDZ001>005-009-010-012>017-271100-
NORTHWEST AND NORTH CENTRAL SOUTH DAKOTA

CITY           SKY/WX    TMP DP  RH WIND       PRES   REMARKS
BUFFALO          N/A     60  59  96 N5        30.06R
FAITH            N/A     59  57  93 NE6       30.07R
MOBRIDGE       CLOUDY    66  62  87 NW5       30.02R
$$

SDZ012>016-024>037-041>051-057-063-072>074-271100-
SOUTHWEST AND SOUTH CENTRAL SOUTH DAKOTA

CITY           SKY/WX    TMP DP  RH WIND       PRES   REMARKS
RAPID CTY ARPT CLOUDY    62  60  93 NW13      30.09R
PIERRE         CLEAR     62  60  93 NE6       29.99R
CUSTER         CLOUDY    58  54  86 NW3       30.24R
ELLSWORTH AFB  CLOUDY    63  62  99 NW13      30.10R
PHILIP         CLEAR     66  64  93 CALM      30.04R
PINE RIDGE     MOCLDY    61  60  97 SW3       30.14R
WINNER         FAIR      64  58  80 W3        30.01S
$$

SDZ004>011-016>023-039-040-271100-
NORTHEAST SOUTH DAKOTA

CITY           SKY/WX    TMP DP  RH WIND       PRES   REMARKS
ABERDEEN       MOCLDY    66  63  90 N7        29.99R
WATERTOWN      CLOUDY    65  63  93 N9        29.97R
SISSETON         N/A     66  65  96 NE3       29.93F
$$

SDZ017-020-022-023-036>040-048>070-271100-
SOUTHEAST SOUTH DAKOTA

CITY           SKY/WX    TMP DP  RH WIND       PRES   REMARKS
SIOUX FALLS    CLOUDY    73  59  61 SW5       29.94S
HURON          CLOUDY    68  66  93 W10       29.96R
CHAMBERLAIN    CLOUDY    66  62  86 NW7       29.98F
MITCHELL       CLOUDY    69  62  78 NW9       29.97S
YANKTON        MOCLDY    70  61  73 NE12      29.91R
$$

ABBREVIATIONS USED IN REMARKS
   TC - TEMPERATURE IN CELSIUS
  WCI - WIND CHILL INDEX
   HX - HEAT INDEX
  VSB - VISIBILITY





USA.gov is the U.S. government's official web portal to all federal, state and local government web resources and services.